Probability
3 5 11 18 19 10 2 0 0 0 0 0 0 0 0 0 0 0 3 9 12 9 5 5 7 5 4 4 3 3 4 5 6 6 7 8 8 8 8 7 6 5 5 4 4 2 0 0 0
5 9 15 19 15 7 1 0 0 0 0 0 0 0 0 0 0 1 4 9 10 7 4 4 7 6 4 3 3 3 4 5 6 6 7 8 8 8 8 8 7 7 6 6 5 3 1 0 0
11 16 21 20 11 3 0 0 0 0 0 0 0 0 0 0 0 1 4 7 8 6 4 5 6 5 3 3 4 4 4 4 5 6 7 7 7 7 7 8 9 9 8 8 7 4 1 0 0
18 22 22 16 6 1 0 0 0 0 0 0 1 2 2 1 1 2 3 5 6 6 5 4 4 4 3 3 5 6 5 4 6 7 8 7 7 7 7 8 9 10 9 9 8 6 3 1 0
23 22 18 9 3 0 0 0 0 0 0 0 1 3 4 2 1 2 3 3 4 5 5 4 4 4 4 3 5 7 6 6 8 10 9 9 9 8 7 8 9 9 10 9 8 6 4 2 1
25 20 12 4 0 0 0 0 0 0 0 0 2 4 4 3 1 1 1 3 5 6 4 4 6 6 5 4 6 8 9 8 10 12 11 9 9 8 8 8 7 7 8 7 7 6 5 5 3
23 17 8 2 0 0 0 0 0 0 0 0 1 3 4 2 1 0 1 4 8 8 5 3 5 6 5 5 6 9 9 10 11 12 11 9 8 8 8 7 5 4 4 5 6 5 6 7 7
18 12 5 1 0 0 0 0 0 0 0 1 1 3 3 3 2 1 2 5 7 7 5 3 3 4 4 5 7 9 9 10 10 10 9 8 7 7 7 5 4 2 2 3 4 4 5 7 9
10 7 3 0 0 0 0 0 0 0 1 2 3 3 4 4 3 3 3 5 7 7 6 5 4 4 5 6 7 8 9 9 9 8 7 6 5 5 5 4 3 2 2 4 4 4 5 7 8
5 3 1 0 0 0 0 0 0 0 1 2 3 4 5 5 4 3 4 5 7 7 7 8 8 6 6 7 7 8 9 9 9 7 6 4 3 3 4 4 3 3 3 4 6 7 7 7 6
3 1 0 0 0 0 0 0 0 0 0 2 3 5 5 4 4 4 5 7 8 9 9 9 9 8 8 9 9 8 9 8 7 7 5 3 3 3 3 4 4 4 3 4 5 7 8 7 5
3 1 0 0 0 0 0 0 0 0 0 1 3 5 5 6 6 6 7 8 9 10 10 11 12 12 12 12 10 8 8 7 6 6 5 4 3 3 3 4 4 3 2 2 3 6 8 7 5
1 0 0 0 0 0 1 1 1 0 0 1 1 4 6 7 6 7 7 7 7 8 10 12 14 17 17 15 12 8 7 7 6 5 5 4 3 3 4 4 4 3 2 2 2 4 7 7 6
0 0 0 0 0 0 1 1 1 0 0 0 1 3 6 7 6 5 4 4 5 7 9 11 14 19 19 16 12 10 8 7 5 5 6 4 3 4 4 4 3 3 3 3 2 3 6 8 8
1 0 0 0 0 0 0 0 0 0 0 0 2 4 6 7 6 5 2 2 5 9 11 10 12 16 18 15 13 10 8 6 6 5 6 4 3 4 4 3 3 3 4 4 4 4 6 7 7
1 0 0 0 0 0 0 0 0 0 0 0 2 4 7 8 7 6 3 3 8 15 16 13 12 15 16 15 13 11 8 7 7 7 7 6 4 4 4 3 3 3 3 3 4 5 4 4 5
1 0 0 0 0 0 1 1 1 1 1 1 2 4 7 8 7 7 6 8 16 23 23 20 17 17 17 16 14 12 10 10 10 9 10 10 8 6 4 3 2 2 2 2 3 4 4 3 2
0 0 0 0 0 1 2 1 1 1 1 2 4 6 6 7 7 8 9 14 23 29 29 26 24 23 20 17 16 15 14 13 13 12 14 14 13 11 9 5 3 3 3 4 4 4 5 3 1
0 0 0 0 0 1 1 1 0 1 1 3 6 7 7 7 9 10 12 16 24 31 34 32 30 29 24 19 17 17 16 15 15 16 17 18 16 15 13 9 8 7 5 6 7 7 6 4 2
0 0 0 0 1 1 1 0 0 1 1 3 6 8 9 11 14 15 14 16 23 30 33 32 33 32 28 22 18 17 18 18 17 19 21 20 18 15 14 13 12 12 10 10 12 12 9 5 3
0 0 0 0 1 1 0 1 1 1 0 2 5 9 11 15 19 20 19 20 24 28 31 31 32 34 31 26 20 18 19 19 20 22 24 23 20 16 15 16 16 15 17 17 17 17 13 8 5
0 0 0 0 1 1 0 1 1 1 0 1 5 9 12 16 22 23 23 25 26 27 31 34 37 38 36 30 25 22 20 20 20 23 26 27 26 22 20 20 20 19 19 20 20 21 18 11 8
0 0 0 0 0 0 0 0 0 0 0 1 5 9 12 16 21 25 27 27 26 26 30 38 44 44 39 34 31 26 22 20 21 25 29 32 33 29 25 24 24 23 21 20 20 22 20 15 11
0 0 0 0 0 0 0 0 0 1 1 2 7 11 14 16 21 25 28 29 27 25 29 38 46 47 42 37 34 30 25 23 24 28 32 34 35 32 29 27 26 26 25 24 24 25 23 19 14
0 0 0 1 0 0 0 1 1 2 3 4 9 14 17 18 20 23 26 28 28 28 30 37 45 47 43 39 37 35 31 29 30 33 34 33 32 32 30 27 25 26 27 28 29 29 26 21 16
0 0 0 0 0 0 1 2 3 4 5 7 11 16 18 18 20 23 26 27 28 29 32 37 42 45 43 41 39 38 36 35 36 38 35 32 32 33 32 27 24 24 25 26 28 28 25 21 17
0 0 1 1 0 0 1 4 6 7 9 11 14 17 18 18 22 26 29 29 29 30 32 35 39 42 43 41 39 39 39 37 37 39 38 34 35 36 34 29 26 25 25 24 25 24 22 20 18
0 1 2 2 1 0 1 4 8 10 12 15 17 17 17 18 23 27 29 28 29 31 33 35 37 40 41 40 39 39 38 36 36 39 39 39 40 39 36 34 31 28 26 24 24 21 19 18 17
0 1 2 3 2 1 2 5 10 11 12 14 15 15 15 17 21 24 23 25 28 31 33 34 37 39 38 40 41 40 38 37 38 40 41 41 42 40 39 37 34 29 26 25 23 21 19 17 16
0 0 1 3 3 2 3 6 10 11 11 11 11 12 14 17 20 21 21 24 28 30 31 33 36 37 37 40 42 41 39 38 39 41 42 42 42 41 39 37 33 29 25 24 23 21 20 18 16
Wind_Speed
9 10 9 5 4 3 4 8 10 11 10 10 10 11 14 13 10 9 7 10 13 14 13 11 11 12 12 12 12 11 11 11 11 10 10 9 9 8 8 7 9 10 9 9 8 8 8 7 7
9 10 6 4 2 2 7 9 11 11 9 8 11 13 14 13 13 10 8 9 12 14 12 12 12 12 12 12 11 11 11 10 10 10 10 9 8 8 8 8 9 9 8 8 7 7 7 7 7
11 11 6 4 1 5 7 8 9 9 9 9 11 12 11 10 11 9 9 10 12 13 12 12 13 13 12 12 11 11 10 10 10 9 9 8 8 8 8 8 8 8 8 7 7 6 6 6 6
8 7 6 2 5 6 7 7 7 8 9 9 10 11 12 10 10 10 10 12 12 13 13 13 13 13 13 12 11 11 10 10 9 8 8 8 7 7 8 8 7 7 7 7 7 6 6 6 6
8 6 3 2 7 6 7 7 8 9 9 12 13 13 12 11 12 11 10 11 12 13 13 14 14 14 13 13 12 11 10 9 8 7 7 7 7 7 8 7 7 6 6 6 5 6 6 6 5
6 4 2 4 7 8 7 6 9 9 10 11 13 13 10 9 10 10 11 10 11 12 14 14 15 15 14 13 12 11 10 8 8 7 7 6 7 7 7 6 6 6 5 5 5 5 5 5 5
6 5 3 5 6 8 8 8 9 8 8 10 12 12 9 9 9 10 10 10 11 12 13 13 13 13 14 13 12 11 10 8 7 7 7 6 7 6 6 6 6 5 5 5 5 5 5 5 5
6 4 3 5 7 8 8 9 9 8 8 7 8 9 10 11 10 10 10 10 10 11 11 11 11 10 10 11 12 11 10 9 7 7 7 6 6 6 6 6 6 5 5 5 5 5 5 5 5
7 4 2 5 6 7 7 9 8 8 9 9 11 13 14 13 11 11 10 10 8 9 9 9 10 9 8 9 11 10 10 8 7 6 6 5 4 5 5 6 7 6 6 6 5 5 5 5 6
4 2 4 5 5 6 7 7 7 7 9 11 12 13 14 12 11 10 10 10 8 7 7 7 8 8 7 7 7 5 5 6 4 4 4 3 2 2 3 6 6 6 6 6 6 6 5 5 4
3 1 2 4 5 6 6 6 6 8 8 10 12 12 12 11 10 10 9 10 9 7 5 6 7 6 6 5 5 3 3 4 4 3 3 2 1 2 2 2 3 4 6 4 5 5 3 3 2
3 1 2 3 5 5 6 6 8 8 8 9 11 12 11 10 9 9 10 9 10 8 7 5 6 5 5 4 3 3 3 3 3 3 2 2 1 1 1 1 1 1 2 2 2 2 2 1 1
3 1 0 2 4 5 7 5 8 9 10 11 11 11 11 10 9 9 10 9 9 8 7 6 7 6 5 4 1 3 2 3 3 3 1 1 1 1 1 1 0 0 1 2 2 2 2 2 1
4 2 0 2 3 3 6 6 7 9 10 10 10 9 9 9 9 10 9 9 9 8 7 7 7 7 5 3 1 1 2 3 3 2 2 1 1 2 1 1 1 1 0 1 1 1 1 1 1
3 5 2 1 3 3 5 5 5 7 10 10 10 9 8 7 8 9 9 9 9 8 7 7 6 7 5 4 3 2 2 3 2 2 3 2 2 2 1 1 1 1 1 1 1 1 1 2 2
4 7 4 3 4 5 5 6 6 8 9 9 10 10 9 8 8 9 10 9 8 9 7 6 6 7 5 3 2 2 1 2 2 2 2 2 1 1 0 1 0 0 0 0 1 1 0 1 1
6 6 5 4 4 4 3 6 7 10 10 9 10 10 10 9 9 9 10 10 9 9 8 6 5 6 5 4 2 2 2 2 2 1 2 2 1 1 1 1 1 0 0 0 0 1 0 1 1
6 3 3 4 4 4 3 3 6 8 10 10 11 11 11 10 10 10 10 11 10 10 8 7 6 5 4 3 2 2 2 2 2 2 1 2 1 1 0 1 0 0 0 1 1 1 0 1 1
8 5 4 5 3 3 4 4 6 9 10 11 11 12 11 10 11 11 10 12 12 10 9 7 6 5 3 2 2 3 2 2 2 2 2 1 1 1 1 1 1 0 0 0 0 0 0 0 0
8 8 6 5 3 3 2 4 6 7 9 10 10 11 11 11 11 11 11 11 12 11 9 8 7 6 4 3 2 2 2 2 2 2 2 2 1 0 1 1 0 0 0 1 0 1 1 1 1
9 8 6 5 6 5 4 4 5 4 6 9 10 11 12 13 13 11 10 11 12 11 10 8 7 6 5 4 3 2 2 1 2 2 2 1 1 1 0 1 0 0 0 1 1 1 0 1 0
8 7 5 5 7 5 5 4 5 6 7 9 10 10 11 12 13 12 11 11 11 11 10 8 8 7 6 4 3 3 3 2 2 2 3 2 1 1 1 1 1 0 1 1 0 1 0 0 1
7 6 6 7 7 7 5 4 4 5 5 8 10 11 11 12 13 13 13 11 11 11 11 9 7 6 6 4 4 2 2 2 2 2 2 2 2 1 1 2 1 1 1 1 0 1 0 0 0
7 7 8 8 7 8 7 5 4 4 7 7 9 11 11 12 13 13 13 11 10 10 10 10 8 6 5 5 4 3 2 1 2 2 2 2 2 2 2 2 1 1 1 1 1 1 1 0 1
8 6 4 6 6 7 6 5 4 7 7 6 8 10 11 13 13 12 12 12 10 10 10 10 9 7 6 5 4 4 3 3 2 2 1 1 1 1 1 2 2 1 1 2 1 1 1 1 1
9 9 7 6 5 4 3 3 4 7 6 5 6 8 9 11 11 11 11 11 10 10 10 10 9 7 6 6 4 4 3 3 2 2 1 1 0 1 2 2 1 1 1 1 1 1 1 1 1
9 9 9 8 8 7 3 1 4 8 9 7 7 8 8 9 10 11 11 10 10 9 9 9 9 8 7 6 5 4 3 2 2 2 2 1 0 1 2 2 1 1 0 0 0 0 1 1 1
11 10 6 6 6 6 5 5 3 6 7 6 7 6 6 8 9 9 10 10 9 9 9 9 8 7 7 6 5 4 3 2 2 1 1 1 1 1 2 1 1 1 0 0 1 1 1 1 1
9 10 7 5 6 6 5 2 3 4 6 7 7 5 6 6 7 7 9 9 8 8 9 9 8 7 6 5 4 3 4 3 2 2 1 1 2 1 1 1 1 1 0 1 1 2 1 1 1
10 11 10 7 7 7 6 2 3 3 5 7 8 7 6 6 6 7 8 8 8 8 8 8 8 8 6 5 5 4 3 3 3 2 2 2 1 2 1 1 1 1 1 1 1 1 1 1 1
Wind_Direction
197 212 217 236 248 241 63 57 56 59 58 53 53 61 62 55 60 83 101 101 108 112 117 114 110 111 111 111 112 112 109 106 104 104 103 101 102 104 107 107 120 129 129 130 134 137 138 137 142
221 221 224 241 255 51 59 61 64 61 67 67 65 68 70 67 79 97 102 110 114 115 119 116 118 115 114 114 116 115 113 110 108 106 104 103 103 106 108 108 112 120 123 124 129 135 136 136 142
240 239 245 227 66 67 63 58 69 72 75 77 74 63 62 72 83 106 121 121 114 112 114 117 122 120 119 119 119 117 115 112 109 107 106 104 105 108 110 110 115 119 122 125 127 131 135 140 148
241 233 234 236 71 64 72 70 79 77 73 77 78 75 70 70 88 107 123 121 112 113 116 122 125 124 124 123 123 119 117 116 115 111 110 109 108 111 113 110 112 116 122 127 131 136 141 148 160
240 251 239 76 72 74 68 68 72 75 75 78 82 89 84 82 95 111 117 112 113 113 118 128 129 129 129 127 125 123 121 121 122 121 119 119 116 116 120 118 120 121 126 131 138 145 151 155 168
258 259 268 84 82 79 79 77 80 78 84 92 97 98 95 105 108 113 112 109 108 110 118 127 134 133 134 132 129 128 126 127 130 131 130 127 127 127 131 131 129 131 135 139 144 151 161 168 178
259 286 306 68 74 76 76 69 73 77 79 86 101 107 115 115 113 112 109 106 104 108 117 130 138 138 139 137 134 134 134 135 135 139 140 138 139 137 137 139 140 143 146 153 158 163 174 181 192
258 284 321 62 77 75 76 74 73 80 80 84 102 111 125 128 127 119 114 108 105 110 116 125 131 136 141 141 144 146 144 144 143 144 152 151 149 150 153 154 151 158 163 166 168 180 189 197 205
268 266 14 61 78 84 84 86 89 88 92 83 80 103 122 132 134 126 120 114 113 115 122 128 128 136 138 139 142 151 151 150 153 154 160 162 170 162 162 149 157 172 178 179 183 194 200 207 215
236 286 46 63 84 95 95 100 110 107 102 100 99 109 126 135 139 134 129 123 120 116 120 123 129 135 137 132 136 154 154 146 156 138 153 172 171 145 130 142 169 179 182 185 196 204 206 215 212
221 291 41 69 79 91 99 105 108 101 103 111 120 126 131 137 143 137 128 122 122 123 116 119 121 120 120 117 138 149 139 141 150 137 148 151 144 134 123 151 166 176 181 189 185 200 212 205 193
243 4 24 81 99 94 87 87 90 92 103 116 125 132 137 145 145 134 128 128 129 132 129 118 112 102 97 103 119 128 125 139 135 130 128 123 112 95 88 90 138 165 163 154 166 170 176 174 159
265 201 121 111 109 105 108 102 103 105 109 114 122 136 144 142 139 131 132 132 131 133 131 115 104 97 92 89 108 120 120 124 118 125 137 120 122 97 98 97 124 216 144 156 169 156 155 150 165
307 319 290 121 114 134 123 125 120 121 121 123 130 135 139 138 137 134 139 137 135 134 127 115 118 113 114 119 123 124 125 110 112 126 117 113 93 77 72 56 39 355 80 105 125 137 140 144 142
310 286 278 190 177 165 124 105 116 133 133 137 137 135 134 138 137 137 138 142 139 134 129 128 132 126 132 138 156 130 127 127 129 122 108 102 90 91 106 103 74 348 11 93 129 141 166 161 162
249 256 241 203 203 202 171 137 152 157 149 148 145 145 146 150 150 141 139 139 135 131 131 140 141 135 138 131 141 125 116 114 118 114 109 106 104 97 111 90 91 27 5 49 118 131 176 141 135
252 242 235 212 201 217 174 138 158 170 159 155 154 154 154 160 156 144 147 141 135 133 133 134 122 129 136 140 145 128 115 103 104 101 102 122 119 105 99 83 44 307 346 63 167 108 82 95 106
255 254 269 249 191 218 139 137 178 179 163 162 162 158 162 164 159 151 150 141 136 135 136 137 133 130 138 141 146 137 129 138 126 113 96 108 126 122 138 136 88 339 17 37 52 96 148 197 208
271 276 261 256 217 224 158 172 209 187 172 163 165 163 166 162 154 151 153 147 143 142 144 147 141 142 149 146 162 158 164 154 134 136 128 128 134 139 131 1 116 6 77 56 61 106 118 247 128
251 259 254 269 240 251 196 183 218 191 171 164 166 164 162 158 151 153 157 153 151 150 150 150 150 152 159 157 170 166 158 152 139 126 125 135 154 146 137 104 349 44 67 43 50 74 29 328 39
247 249 251 258 272 252 243 225 227 186 179 167 170 167 167 165 158 158 158 155 152 155 160 160 157 155 163 164 168 150 141 143 139 140 132 153 146 136 35 105 49 3 150 121 150 113 172 262 312
263 259 259 247 262 269 254 250 190 185 182 179 172 169 167 162 158 158 159 157 155 157 157 154 155 157 159 172 174 175 162 161 158 148 143 148 149 160 138 117 103 49 45 91 209 148 207 228 312
273 296 287 269 265 272 263 259 222 177 192 192 178 173 166 161 158 156 157 157 158 157 156 153 150 156 158 169 165 175 166 167 145 141 137 144 143 160 167 145 148 170 151 157 160 102 150 162 291
264 274 272 268 265 262 246 235 224 187 192 192 177 165 161 158 156 155 155 154 157 155 153 150 147 152 160 169 166 164 174 173 148 151 156 173 162 164 161 136 152 172 175 181 147 187 156 185 287
247 257 263 252 238 252 244 230 184 177 177 175 163 161 156 155 154 151 152 156 159 159 155 151 152 158 163 169 172 167 187 196 185 182 188 199 163 145 144 134 155 176 174 166 155 176 185 202 247
247 246 251 266 275 270 248 234 144 137 127 143 140 140 147 152 149 150 154 157 161 161 156 152 154 160 165 169 168 166 184 198 191 192 201 206 176 125 128 120 131 166 183 177 172 196 191 197 258
253 256 270 283 286 282 277 194 143 137 143 146 135 140 153 152 149 151 154 157 159 159 154 154 156 164 170 173 168 176 182 197 188 185 197 195 116 142 111 125 139 86 129 233 170 235 248 211 255
246 260 268 272 279 282 282 258 214 152 147 133 123 140 146 148 147 151 155 158 161 160 154 153 155 163 170 170 175 179 181 183 189 189 148 122 102 71 120 130 116 106 8 243 225 242 230 212 250
237 249 256 267 269 277 264 268 89 134 144 141 134 139 140 136 146 147 150 152 153 154 153 153 154 160 164 166 167 171 170 173 178 178 164 154 144 136 134 155 164 175 170 303 253 232 202 215 238
241 243 243 247 253 267 271 253 86 142 148 140 138 135 136 136 138 140 142 142 152 158 156 156 160 163 165 160 156 155 151 169 177 175 170 163 159 166 179 186 197 212 203 220 273 273 230 205 202